Regional Weather Roundup
Issued by NWS

Home | Current Version | Previous Version | Text Only | Print | Product List | Glossary Off
Versions: 1 2 3 4 5 6 7 8 9 10 11 12 13 14 15 16 17 18 19 20 21 22 23 24 25 26 27 28 29 30 31 32 33 34 35 36 37 38 39 40 41 42 43 44 45 46 47 48 49 50

000
ASUS43 KLOT 091908
RWRIL

ILLINOIS REGIONAL WEATHER ROUNDUP
NATIONAL WEATHER SERVICE CHICAGO/ROMEOVILLE IL
100 PM CST TUE FEB 09 2016

NOTE: "FAIR" INDICATES FEW OR NO CLOUDS BELOW 12,000 FEET WITH NO
SIGNIFICANT WEATHER AND/OR OBSTRUCTIONS TO VISIBILITY.

* THESE STATIONS ARE NOT UNDER NWS QUALITY CONTROL. THEY ALSO MAY NOT
  REPORT WEATHER SUCH AS PRECIPITATION OR FOG.

ILZ001-002-007-009-015-016-024-092000-
NORTHWEST ILLINOIS

CITY           SKY/WX    TMP DP  RH WIND       PRES   REMARKS
MOLINE         CLOUDY    18   7  62 NW21G30   29.98S WCI   1
STERLING*      CLOUDY    18   7  62 NW17      29.89F WCI   2
SAVANNA*       MOSUNNY   18   6  59 NW14      29.94S WCI   4
$$

ILZ003-004-008-010-011-017-018-092000-
NORTH CENTRAL ILLINOIS

CITY           SKY/WX    TMP DP  RH WIND       PRES   REMARKS
ROCKFORD       CLOUDY    17   6  62 NW15      29.89F WCI   2
FREEPORT*      PTSUNNY   17   8  69 NW17      29.91S WCI   1
ROCHELLE*      CLOUDY    16   8  70 NW15      29.89S WCI   1
DE KALB*       CLOUDY    16   8  70 NW15G23   29.85F WCI   1
$$

ILZ005-006-012>014-019>023-092000-
NORTHEAST ILLINOIS

CITY           SKY/WX    TMP DP  RH WIND       PRES   REMARKS
CHICAGO-OHARE  CLOUDY    17   7  64 NW16      29.82F WCI   2
CHICAGO-MIDWAY FLURRIES  19   8  62 NW14      29.83F WCI   6
AURORA         CLOUDY    18   9  68 NW15G22   29.86S WCI   4
LANSING*       CLOUDY    21  12  67 NW16      29.83S WCI   7
JOLIET*        CLOUDY    19  10  65 NW12G18   29.86S WCI   7
WAUKEGAN       CLOUDY    18   7  62 NW8G18    29.81S WCI   8
DUPAGE AIRPORT CLOUDY    16   6  65 NW15      29.84S WCI   1
KANKAKEE*      FLURRIES  19  10  69 NW14      29.85S WCI   6
WHEELING       CLOUDY    18   8  65 W14       29.84S WCI   4
MORRIS*        CLOUDY    18   9  69 NW14      29.85S WCI   4
ROMEOVILLE*    CLOUDY    18   9  68 NW16      29.84F WCI   3
NORTHERLY ISL    N/A     20  10  65 W12         N/A  WCI   8
$$

LMZ740>746-092000-
SOUTHERN LAKE MICHIGAN

STATION/POSITION SKY/WX   TEMP    WIND        PRES    VSBY  WAVE
                          AIR SEA DIR/SP/G                  HT/PER
                          (F)     (DEG/KT/KT) (MB)    (MI)  (FT/S)
HARRISON CRIB              19     310/ 14/ 16   N/A
BURNHAM HARBOR             19     320/ 14/ 15   N/A
CALUMET HARBOR             19     300/  6/ 11 1009.5F
BURNS HARBOR               20     310/ 15/ 21 1009.8S
MICHIGAN CITY              21     290/ 16/ 19   N/A
$$

ILZ025>027-034>036-040-047-049-050-058-095>099-092000-
WEST-CENTRAL ILLINOIS

CITY           SKY/WX    TMP DP  RH WIND       PRES   REMARKS
QUINCY         CLOUDY    17   8  67 NW22      30.03S HAZE    WCI   0
GALESBURG*     CLOUDY    17   9  70 W17G24    29.96S WCI   1
MACOMB*        PTSUNNY   19  12  73 NW26      30.02S WCI   1
JACKSONVILLE*  CLOUDY    21  10  64 NW18G26   29.99S WCI   6
PITTSFIELD*    FLURRIES  19  11  71 NW16G22   30.03S WCI   4
$$

ILZ028>032-037-038-041>044-048-051>054-059>061-092000-
CENTRAL ILLINOIS

CITY           SKY/WX    TMP DP  RH WIND       PRES   REMARKS
PONTIAC        FLURRIES  19  12  74 NW18      29.89S WCI   4
BLOOMINGTON    LGT SNOW  18  10  70 NW21      29.89F WCI   2
DECATUR        FLURRIES  19  10  68 NW18G29   29.91S WCI   4
PEORIA         FLURRIES  18   7  62 NW12G22   29.94F WCI   5
LACON*         FLURRIES  17   9  68 NW12G23   29.92S WCI   5
LINCOLN*       CLOUDY    21  11  64 NW9G21    29.93F WCI  11
SPRINGFIELD    FLURRIES  20  10  65 NW22      29.96S WCI   3
TAYLORVILLE    CLOUDY    19  10  68 W22G28    29.95S WCI   3
$$

ILZ033-039-045-046-055>057-062-063-092000-
EAST-CENTRAL ILLINOIS

CITY           SKY/WX    TMP DP  RH WIND       PRES   REMARKS
CHAMPAIGN      LGT SNOW  18  12  77 NW22G29   29.88S WCI   1
RANTOUL*       LGT SNOW  20  13  76 NW23      29.86F WCI   3
MATTOON        LGT SNOW  18  12  77 NW22      29.89S VSB 1   WCI   1
PARIS*         LGT SNOW  20  14  79 NW17G23   29.88S WCI   5
$$

ILZ079-100>102-092000-
SOUTHWEST ILLINOIS

CITY           SKY/WX    TMP DP  RH WIND       PRES   REMARKS
BELLEVILLE     FLURRIES  19  10  68 NW17G25   30.01S WCI   4
CAHOKIA*       CLOUDY    21  10  62 NW18G26   30.04S WCI   6
SPARTA*        CLOUDY    20  11  68 NW13G20   30.02S WCI   7
$$

ILZ064>066-069>071-074>076-080>082-084>086-088>090-092>094-092000-
SOUTH-CENTRAL ILLINOIS

CITY           SKY/WX    TMP DP  RH WIND       PRES   REMARKS
CARBONDALE     LGT SNOW  21  14  74 NW8       30.01S WCI  11
CAIRO*         FLURRIES  24  18  76 W14G20    30.02S WCI  12
EFFINGHAM*     LGT SNOW  21  13  73 W23       29.95S WCI   4
MARION         LGT SNOW  23  16  74 NW12G17   30.00F WCI  12
MT. VERNON     CLOUDY    21   9  58 W7G17     29.97F WCI  13
CENTRALIA*     LGT SNOW  22  13  71 NW18G28   29.97S WCI   7
SALEM*         LGT SNOW  22  13  68 NW18      29.96S WCI   8
METROPOLIS*    FLURRIES  25  18  74 NW16G23   30.00S WCI  12
$$

ILZ067-068-072-073-078-083-087-091-092000-
SOUTHEAST ILLINOIS

CITY           SKY/WX    TMP DP  RH WIND       PRES   REMARKS
LAWRENCEVILLE  LGT SNOW  21  14  74 W18       29.92S WCI   6
FLORA*         LGT SNOW  22  15  73 NW14G23   29.95F WCI  10
FAIRFIELD*     LGT SNOW  21  13  68 NW10G20   29.95F WCI  10
HARRISBURG*    CLOUDY    22  13  67 NW20G26   29.99S WCI   7
ROBINSON*      LGT SNOW  20  13  73 NW15G23   29.93S WCI   6
CARMI*         LGT SNOW  22  16  78 NW21      29.96S WCI   6
$$

ABBREVIATIONS USED IN REMARKS
   TC - TEMPERATURE IN CELSIUS
  WCI - WIND CHILL INDEX
   HX - HEAT INDEX
  VSB - VISIBILITY
$$




USA.gov is the U.S. government's official web portal to all federal, state and local government web resources and services.